Regional Weather Roundup
Issued by NWS Charleston, SC

Current Version | Previous Version | Text Only | Print | Product List | Glossary Off
Versions: 1 2 3 4 5 6 7 8 9 10 11 12 13 14 15 16 17 18 19 20 21 22 23 24 25 26 27 28 29 30 31 32 33 34 35 36 37 38 39 40 41 42 43 44 45 46 47 48 49 50

000
ASUS42 KCHS 212027
RWRCHS

Regional Weather Roundup
National Weather Service Charleston SC
300 PM EST SUN JAN 21 2018

NOTE: "fair" indicates few or no clouds below 12,000 feet with no
significant weather and/or obstructions to visibility.

Not all stations are quality controlled. Use data with caution,
especially dewpoint observations.

SCZ027-030-031-034>040-042>050-212100-
...Southeast South Carolina...

CITY           SKY/WX    TMP DP  RH WIND       PRES   REMARKS
N Charleston   FAIR      68  42  38 SE10      30.20S
Waterfront Prk NOT AVBL
Mount Pleasant FAIR      61  43  51 SE7       30.22R
Johns Island   FAIR      61  43  51 SE7       30.21F
Pinopolis        N/A     57  43  58 VRB3      30.11F
Moncks Corner  FAIR      66  34  30 N3        30.19F
Summerville    FAIR      70  37  30 SW3       30.20F
Beaufort MCAS  FAIR      66  46  48 SE6       30.20F
Beaufort Arpt  FAIR      63  41  45 SE5       30.20S
Hilton Head Is SUNNY     59  39  47 SE3       30.21F
Walterboro     FAIR      70  39  32 W5        30.20S
Allendale      FAIR      68  41  37 CALM      30.19F

...Southern Midlands and Pee Dee...

CITY           SKY/WX    TMP DP  RH WIND       PRES   REMARKS
Georgetown     FAIR      61  37  41 SE8       30.23S
Kingstree      FAIR      68  36  30 CALM      30.20S
Orangeburg     FAIR      68  37  32 SE3       30.19F
Barnwell         N/A     70  45  40 CALM      30.19F
Aiken          FAIR      68  41  37 CALM      30.22F
Manning        FAIR     N/A N/A N/A MISG      30.20F
Columbia       FAIR      72  38  29 SE6       30.18F
Sumter         FAIR      71  39  32 CALM      30.17F
Florence       FAIR      68  40  35 CALM      30.20F
Myrtle Beach   FAIR      58  40  51 SE8       30.23F
N Myrtle Beach FAIR      59  35  40 S7        30.21F

$$

GAZ063-065-086>088-099>101-113>116-118-119-134>141-150-212100-
...Southeast Georgia...

CITY           SKY/WX    TMP DP  RH WIND       PRES   REMARKS
Savannah Arpt  FAIR      71  40  32 VRB5      30.20F
Hunter AAF     FAIR      67  42  39 SE9       30.18S
Fort Stewart   FAIR      70  41  34 CALM      30.18F
Statesboro     FAIR      71  34  25 W3        30.19F
Sylvania       FAIR      69  45  42 CALM      30.20F
Claxton        FAIR      72  42  34 CALM      30.19F

...CSRA, Central and far Southeast Georgia...

CITY           SKY/WX    TMP DP  RH WIND       PRES   REMARKS
Thomson        FAIR      70  44  39 E3        30.23F
Augusta-Bush   FAIR      71  43  36 CALM      30.18F
Augusta-Daniel FAIR      71  42  35 CALM      30.19F
Swainsboro     FAIR      70  43  37 E5        30.19F
Vidalia        FAIR      72  43  35 E3        30.18F
Eastman        FAIR      72  20  14 SW3       30.21F
Hazlehurst     FAIR      71  27  19 CALM      30.18F
Alma           FAIR      69  40  34 CALM      30.19F
Waycross       FAIR      70  32  23 W5        30.19F
Jesup          NOT AVBL
Baxley         FAIR      68  39  34 E3        30.19F
Brunswick      FAIR      64  32  29 E9        30.21F
Saint Simons   FAIR      61  34  36 E8        30.21F

$$

SCZ027-028-034-036>038-045-046-048>050-GAZ119-141-212100-
...Lake and Supplemental Coastal Observations...

STATION/POSITION TIME  TEMP    WIND        PRES    WAVE   SWELL
                       AIR SEA DIR/SP/G            HT/PER HT/PER/DIR
                 (UTC) (F)     (DEG/KT/KT) (MB)    (FT/S) (FT/S/D)
Winyah Bay       1945   56     110/  4     1023.0F
Lake Murray      2020   65     120/  2/  2 1021.3F
ACE Basin NERRS  1945   61     180/  2     1023.0S
Fort Pulaski     2000   62 46  160/  4/  6 1023.1
Sapelo Island    2000   63     120/  6     1023.0

$$

ANZ835-935-AMZ111-154-330-350-352-354-370-450-454-472-212100-
...C-MAN and Buoy Observations...

STATION/POSITION TIME  TEMP    WIND        PRES    WAVE   SWELL
                       AIR SEA DIR/SP/G            HT/PER HT/PER/DIR
                 (UTC) (F)     (DEG/KT/KT) (MB)    (FT/S) (FT/S/D)
Buoy 41004       2010   62 70  280/  4/  6 1023.1
Buoy 41008       1950   58 52     CALM     1023.3F   1/10
Folly Beach CMAN 2000   54     200/  3/  4 1024.0F
Capers Nearshore 2008   51 50  150/  4/  6 1023.1F
Fripp Nearshore  2008   52 48  170/  2/  4 1022.7F


STATION/POSITION TIME  TEMP    WIND        PRES    WAVE   SWELL
                       AIR SEA DIR/SP/G            HT/PER HT/PER/DIR
                 (UTC) (F)     (DEG/KT/KT) (MB)    (FT/S) (FT/S/D)
5E St. Marys GA  2000      53                N/A     1/11   2/120/11
Frying Pan Buoy  2010   52     290/  2/  2 1023.5
Buoy 41025       2010   56 73  300/  8/ 10 1023.3
Cape Lookout NC  2000          200/  4/  5 1023.1F
Buoy 41002       1950   66 70  320/ 10/ 12 1023.2F   3/ 6   3/320/ 6
Buoy 41010       NOT AVBL
St Augustine FL  2000   54 53  360/  9/ 10 1023.1F


$$




USA.gov is the U.S. government's official web portal to all federal, state and local government web resources and services.